Das europäische

Eingangstor zur

Zentralschweiz

Aviatik Kompetenzen

mit langer Tradition

Luftfahrt im Land

der Flugzeugbauer

Flugbasis für Arbeits- und

Geschäftsflüge mit hoher Priorität

METAR

LSZC 152220Z 25003KT CAVOK 21/12 Q1018

 

TAF

LSZC 151425Z 1515/1524 VRB04KT CAVOK TEMPO 1515/1518 9999 FEW050

METEO

NOTAM

B670/21
CRANE 1.7KM 038DEG GEO ARP LSZC, MARKED, LGTD, 465910N0082439E, 43.8M / 143.8FT AGL, 512.2M / 1680.4FT AMSL.
FROM: 26.05.2021, 05:42z
TO: 14.07.2022, 23:59z

B768/21
WILLISAU VOR/DME WIL 116.900 U/S DUE TO MAINT.
FROM: 16.06.2021, 19:00z
TO: 16.06.2021, 21:00z

DABS

Heute
Morgen

FLÜGE

Anmelden
Timetable

Richtung West (Pilatus)

Richtung West (Pilatus)


Richtung Ost (Brunnen)

Richtung Ost (Brunnen)

Richtung Nord (Luzern)

Richtung Süd (Engelberg)

Privacy Settings
We use cookies to enhance your experience while using our website. If you are using our Services via a browser you can restrict, block or remove cookies through your web browser settings. We also use content and scripts from third parties that may use tracking technologies. You can selectively provide your consent below to allow such third party embeds. For complete information about the cookies we use, data we collect and how we process them, please check our Privacy Policy
Youtube
Consent to display content from Youtube
Vimeo
Consent to display content from Vimeo
Google Maps
Consent to display content from Google